User: anonymous   Login
Location: Newark
(41.9364°N, 2.8061°E)
Time: 18:29:14
(UTC+00:00)
Language:

SR - Orbit

View from above orbital plane
View from above orbital plane
View from above satellite
View from above satellite

Ground track
Ground track

The orbit data is extracted from the following two-line orbital elements,

1    46U 60007B   20055.46058762 -.00000046  00000-0  14074-4 0  9994
2    46  66.6922 354.5165 0214607 217.8233 140.7632 14.49275010122582
Epoch (UTC): 24 February 2020 11:03:14
Eccentricity: 0.0214607
inclination: 66.6922°
perigee height: 575 km
apogee height: 880 km
right ascension of ascending node: 354.5165°
argument of perigee: 217.8233°
revolutions per day: 14.49275010
mean anomaly at epoch: 140.7632°
orbit number at epoch: 12258

The dashed part of the orbit path shows where the satellite is in the earth's shadow,  

DLR